Location: *
(43.7000°S, 168.7000°W)
Time: 14:15:21
(UTC+00:00)

SJ 16-02 - Pass Details

Date: 07 July 2020
Orbit: 606 x 617 km, 75.0° (Epoch: 04 August)

Event Time Altitude Azimuth Distance (km) Brightness Sun altitude
Exits shadow 16:04:00 - 164° (SSE) 2,086 4.2 -28.8°
Reaches altitude 10° 16:04:23 10° 160° (SSE) 1,996 4.1 -28.7°
Maximum altitude 16:07:00 15° 124° (SE) 1,673 4.1 -28.2°
Drops below altitude 10° 16:09:36 10° 88° (E) 1,985 4.9 -27.8°
Sets 16:12:43 0° 65° (ENE) 2,883 5.9 -27.2°
